| time (UTC) | temp F | wind direction | speed MPH | gust MPH | rain 1hr in | rain 24hr in | rain mn in | humidity % | barometer mb |
| 20260507090017 | 70 | 135 | 1.0 | 4.0 | 0.00 | 0.19 | 0.13 | 72 | 1011.5 |
| 20260507085017 | 69 | 0.0 | 0.0 | 0.00 | 0.19 | 0.13 | 73 | 1011.7 | |
| 20260507084017 | 68 | 113 | 1.0 | 3.0 | 0.00 | 0.19 | 0.13 | 74 | 1011.7 |
| 20260507083017 | 68 | 0.0 | 1.0 | 0.00 | 0.19 | 0.13 | 75 | 1011.7 | |
| 20260507082037 | 67 | 0.0 | 2.0 | 0.00 | 0.19 | 0.13 | 79 | 1011.6 | |
| 20260507081017 | 66 | 113 | 2.0 | 4.0 | 0.00 | 0.19 | 0.13 | 77 | 1011.5 |
| 20260507080017 | 66 | 113 | 3.0 | 6.0 | 0.00 | 0.19 | 0.13 | 78 | 1011.3 |
| 20260507075037 | 67 | 90 | 3.0 | 5.0 | 0.00 | 0.19 | 0.13 | 76 | 1011.2 |
| 20260507074037 | 68 | 68 | 3.0 | 6.0 | 0.00 | 0.19 | 0.13 | 68 | 1011.2 |
| 20260507073017 | 68 | 68 | 4.0 | 8.0 | 0.00 | 0.19 | 0.13 | 67 | 1011.1 |
| 20260507072017 | 66 | 45 | 4.0 | 8.0 | 0.00 | 0.19 | 0.13 | 73 | 1011.1 |
| 20260507071017 | 65 | 23 | 6.0 | 12.0 | 0.00 | 0.19 | 0.13 | 72 | 1011.1 |
| 20260507070017 | 65 | 23 | 2.0 | 4.0 | 0.00 | 0.19 | 0.13 | 76 | 1011.3 |
| 20260507065017 | 64 | 45 | 3.0 | 6.0 | 0.00 | 0.19 | 0.13 | 76 | 1011.3 |
| 20260507064017 | 63 | 68 | 3.0 | 9.0 | 0.00 | 0.19 | 0.13 | 77 | 1011.3 |
| 20260507063017 | 62 | 23 | 4.0 | 6.0 | 0.00 | 0.19 | 0.13 | 81 | 1011.3 |
| 20260507062017 | 61 | 68 | 1.0 | 2.0 | 0.00 | 0.19 | 0.13 | 84 | 1011.4 |
| 20260507061017 | 61 | 0.0 | 3.0 | 0.00 | 0.19 | 0.13 | 81 | 1011.4 | |
| 20260507060017 | 61 | 45 | 2.0 | 5.0 | 0.00 | 0.19 | 0.13 | 82 | 1011.3 |
| 20260507055017 | 61 | 68 | 2.0 | 5.0 | 0.00 | 0.19 | 0.13 | 82 | 1011.2 |
| 20260507054057 | 61 | 45 | 5.0 | 10.0 | 0.00 | 0.19 | 0.13 | 82 | 1011.1 |
| 20260507053017 | 60 | 23 | 7.0 | 11.0 | 0.01 | 0.19 | 0.13 | 85 | 1011.1 |
| 20260507052017 | 60 | 23 | 5.0 | 10.0 | 0.01 | 0.19 | 0.13 | 86 | 1011.2 |
| 20260507051017 | 60 | 23 | 7.0 | 16.0 | 0.01 | 0.19 | 0.13 | 85 | 1011.3 |
| 20260507050018 | 59 | 23 | 7.0 | 16.0 | 0.01 | 0.19 | 0.13 | 87 | 1011.2 |
| 20260507045037 | 59 | 45 | 8.0 | 15.0 | 0.01 | 0.19 | 0.13 | 87 | 1011.1 |
| 20260507044017 | 59 | 68 | 4.0 | 11.0 | 0.01 | 0.19 | 0.13 | 88 | 1011.2 |
| 20260507043037 | 59 | 68 | 6.0 | 11.0 | 0.00 | 0.18 | 0.13 | 88 | 1011.0 |
| 20260507042016 | 59 | 68 | 4.0 | 8.0 | 0.00 | 0.18 | 0.13 | 89 | 1011.2 |
| 20260507041017 | 59 | 45 | 4.0 | 8.0 | 0.00 | 0.18 | 0.13 | 89 | 1011.3 |
| 20260507040037 | 59 | 45 | 4.0 | 7.0 | 0.00 | 0.18 | 0.13 | 88 | 1011.5 |
| 20260507035017 | 59 | 23 | 6.0 | 11.0 | 0.00 | 0.18 | 0.13 | 88 | 1011.7 |
| 20260507034016 | 58 | 23 | 6.0 | 12.0 | 0.00 | 0.18 | 0.13 | 89 | 1012.1 |
| 20260507033016 | 58 | 45 | 4.0 | 9.0 | 0.00 | 0.18 | 0.13 | 90 | 1012.3 |
| 20260507032036 | 58 | 45 | 1.0 | 8.0 | 0.01 | 0.18 | 0.13 | 90 | 1012.7 |
| 20260507031017 | 58 | 68 | 1.0 | 6.0 | 0.01 | 0.18 | 0.13 | 91 | 1012.6 |
| 20260507030017 | 58 | 45 | 3.0 | 6.0 | 0.02 | 0.18 | 0.13 | 91 | 1012.4 |
| 20260507025016 | 58 | 45 | 3.0 | 6.0 | 0.03 | 0.18 | 0.13 | 92 | 1012.3 |
| 20260507024017 | 57 | 68 | 3.0 | 6.0 | 0.04 | 0.18 | 0.13 | 91 | 1012.2 |
| 20260507023017 | 58 | 68 | 2.0 | 5.0 | 0.05 | 0.18 | 0.13 | 92 | 1012.2 |
| 20260507022036 | 57 | 0 | 4.0 | 7.0 | 0.04 | 0.17 | 0.12 | 92 | 1012.3 |
| 20260507021017 | 57 | 68 | 3.0 | 6.0 | 0.04 | 0.17 | 0.12 | 92 | 1012.3 |
| 20260507020016 | 57 | 338 | 3.0 | 7.0 | 0.02 | 0.16 | 0.10 | 92 | 1012.1 |
| 20260507015016 | 57 | 338 | 1.0 | 3.0 | 0.02 | 0.15 | 0.09 | 91 | 1012.1 |
| 20260507014016 | 57 | 135 | 1.0 | 1.0 | 0.01 | 0.14 | 0.09 | 91 | 1012.2 |
| 20260507013016 | 57 | 0.0 | 2.0 | 0.00 | 0.13 | 0.08 | 92 | 1012.1 | |
| 20260507012016 | 57 | 0.0 | 2.0 | 0.00 | 0.13 | 0.08 | 92 | 1012.0 | |
| 20260507011016 | 57 | 0.0 | 1.0 | 0.01 | 0.13 | 0.08 | 91 | 1011.9 | |
| 20260507010036 | 57 | 68 | 2.0 | 5.0 | 0.02 | 0.13 | 0.08 | 92 | 1011.8 |
| 20260507005016 | 57 | 68 | 2.0 | 4.0 | 0.02 | 0.13 | 0.08 | 92 | 1011.7 |
| 20260507004016 | 57 | 0.0 | 2.0 | 0.04 | 0.13 | 0.08 | 92 | 1011.8 | |
| 20260507003016 | 57 | 23 | 3.0 | 6.0 | 0.05 | 0.13 | 0.08 | 91 | 1012.0 |
| 20260507002016 | 57 | 23 | 5.0 | 10.0 | 0.06 | 0.13 | 0.08 | 91 | 1012.2 |
| 20260507001017 | 57 | 45 | 5.0 | 12.0 | 0.05 | 0.13 | 0.07 | 90 | 1012.3 |
| 20260507000036 | 57 | 68 | 2.0 | 6.0 | 0.05 | 0.12 | 0.06 | 91 | 1012.1 |
| 20260506235016 | 57 | 68 | 1.0 | 3.0 | 0.04 | 0.11 | 0.06 | 90 | 1012.2 |
| 20260506234036 | 57 | 23 | 2.0 | 4.0 | 0.02 | 0.09 | 0.04 | 90 | 1012.5 |
| 20260506233016 | 57 | 68 | 3.0 | 5.0 | 0.02 | 0.09 | 0.03 | 90 | 1012.7 |
| 20260506232016 | 58 | 113 | 3.0 | 8.0 | 0.02 | 0.08 | 0.02 | 90 | 1012.8 |
| 20260506231016 | 58 | 23 | 2.0 | 4.0 | 0.02 | 0.08 | 0.02 | 89 | 1012.6 |
| 20260506230016 | 57 | 23 | 4.0 | 9.0 | 0.02 | 0.07 | 0.02 | 90 | 1012.9 |
| 20260506225016 | 57 | 45 | 2.0 | 5.0 | 0.02 | 0.07 | 0.02 | 90 | 1013.2 |
| 20260506224016 | 58 | 45 | 3.0 | 6.0 | 0.02 | 0.07 | 0.02 | 90 | 1013.1 |
| 20260506223016 | 58 | 68 | 1.0 | 4.0 | 0.02 | 0.06 | 0.01 | 90 | 1013.1 |
| 20260506222016 | 58 | 45 | 4.0 | 9.0 | 0.02 | 0.06 | 0.01 | 90 | 1012.8 |
| 20260506221016 | 58 | 23 | 4.0 | 8.0 | 0.02 | 0.06 | 0.00 | 90 | 1012.8 |
| 20260506220016 | 58 | 45 | 3.0 | 7.0 | 0.02 | 0.06 | 0.06 | 90 | 1012.9 |
| 20260506215016 | 58 | 23 | 1.0 | 3.0 | 0.02 | 0.06 | 0.06 | 90 | 1012.9 |
| 20260506214017 | 58 | 0.0 | 1.0 | 0.01 | 0.05 | 0.05 | 90 | 1013.2 | |
| 20260506213016 | 58 | 338 | 2.0 | 5.0 | 0.01 | 0.05 | 0.05 | 89 | 1013.1 |
| 20260506212016 | 58 | 338 | 2.0 | 4.0 | 0.01 | 0.04 | 0.04 | 89 | 1013.1 |
| 20260506211016 | 59 | 338 | 1.0 | 5.0 | 0.01 | 0.04 | 0.04 | 90 | 1013.2 |
| 20260506210036 | 59 | 0.0 | 2.0 | 0.01 | 0.04 | 0.04 | 91 | 1013.3 | |
| 20260506205016 | 59 | 0.0 | 3.0 | 0.02 | 0.04 | 0.04 | 91 | 1013.3 | |
| 20260506204016 | 59 | 45 | 2.0 | 3.0 | 0.02 | 0.04 | 0.04 | 91 | 1013.4 |
| 20260506203016 | 60 | 23 | 2.0 | 4.0 | 0.04 | 0.04 | 0.04 | 89 | 1013.5 |
| 20260506202016 | 61 | 0.0 | 0.0 | 0.03 | 0.03 | 0.03 | 88 | 1013.6 | |
| 20260506201016 | 61 | 203 | 2.0 | 3.0 | 0.03 | 0.03 | 0.03 | 86 | 1013.7 |
| 20260506200016 | 61 | 0.0 | 3.0 | 0.03 | 0.03 | 0.03 | 84 | 1013.8 | |
| 20260506195016 | 62 | 270 | 1.0 | 4.0 | 0.02 | 0.02 | 0.02 | 84 | 1013.8 |
| 20260506194016 | 62 | 270 | 3.0 | 11.0 | 0.02 | 0.02 | 0.02 | 82 | 1013.8 |
| 20260506193016 | 62 | 0.0 | 3.0 | 0.00 | 0.00 | 0.00 | 80 | 1013.5 | |
| 20260506192018 | 62 | 0.0 | 0.0 | 0.00 | 0.00 | 0.00 | 79 | 1013.0 | |
| 20260506191036 | 62 | 0.0 | 0.0 | 0.00 | 0.00 | 0.00 | 79 | 1012.6 | |
| 20260506190017 | 62 | 0.0 | 1.0 | 0.00 | 0.00 | 0.00 | 78 | 1012.3 | |
| 20260506185016 | 62 | 0.0 | 1.0 | 0.00 | 0.00 | 0.00 | 78 | 1012.0 | |
| 20260506184016 | 63 | 0.0 | 0.0 | 0.00 | 0.00 | 0.00 | 78 | 1011.7 | |
| 20260506183016 | 63 | 0.0 | 0.0 | 0.00 | 0.00 | 0.00 | 77 | 1011.7 | |
| 20260506182016 | 64 | 0.0 | 0.0 | 0.00 | 0.00 | 0.00 | 76 | 1011.7 | |
| 20260506181016 | 64 | 0.0 | 0.0 | 0.00 | 0.00 | 0.00 | 75 | 1011.6 | |
| 20260506180036 | 64 | 0.0 | 0.0 | 0.00 | 0.00 | 0.00 | 74 | 1011.7 | |
| 20260506175016 | 65 | 0.0 | 1.0 | 0.00 | 0.00 | 0.00 | 73 | 1011.6 | |
| 20260506174017 | 65 | 0.0 | 2.0 | 0.00 | 0.00 | 0.00 | 73 | 1011.7 | |
| 20260506173016 | 65 | 0.0 | 4.0 | 0.00 | 0.00 | 0.00 | 73 | 1011.7 | |
| 20260506172016 | 65 | 203 | 2.0 | 5.0 | 0.00 | 0.00 | 0.00 | 72 | 1011.6 |
| 20260506171016 | 65 | 203 | 5.0 | 9.0 | 0.00 | 0.00 | 0.00 | 72 | 1011.7 |
| 20260506170036 | 66 | 203 | 5.0 | 8.0 | 0.00 | 0.00 | 0.00 | 71 | 1011.7 |
| 20260506165016 | 66 | 203 | 3.0 | 6.0 | 0.00 | 0.00 | 0.00 | 70 | 1011.6 |
| 20260506164016 | 67 | 203 | 3.0 | 5.0 | 0.00 | 0.00 | 0.00 | 68 | 1011.7 |
| 20260506163018 | 67 | 203 | 3.0 | 7.0 | 0.00 | 0.00 | 0.00 | 67 | 1011.7 |
| 20260506162016 | 67 | 225 | 3.0 | 9.0 | 0.00 | 0.00 | 0.00 | 67 | 1011.7 |
| 20260506161016 | 68 | 203 | 6.0 | 10.0 | 0.00 | 0.00 | 0.00 | 66 | 1011.7 |
| 20260506160016 | 69 | 203 | 4.0 | 8.0 | 0.00 | 0.00 | 0.00 | 65 | 1011.7 |
| 20260506155016 | 70 | 225 | 4.0 | 9.0 | 0.00 | 0.00 | 0.00 | 64 | 1011.7 |
| 20260506154016 | 71 | 225 | 3.0 | 10.0 | 0.00 | 0.00 | 0.00 | 62 | 1011.5 |
| 20260506153016 | 71 | 225 | 4.0 | 10.0 | 0.00 | 0.00 | 0.00 | 56 | 1011.5 |
| 20260506152036 | 72 | 248 | 3.0 | 9.0 | 0.00 | 0.00 | 0.00 | 56 | 1011.4 |
| 20260506151016 | 72 | 270 | 3.0 | 10.0 | 0.00 | 0.00 | 0.00 | 57 | 1011.3 |
| 20260506150016 | 73 | 248 | 3.0 | 9.0 | 0.00 | 0.00 | 0.00 | 55 | 1011.3 |
| 20260506145016 | 73 | 248 | 4.0 | 8.0 | 0.00 | 0.00 | 0.00 | 56 | 1011.2 |
| 20260506144016 | 73 | 203 | 3.0 | 7.0 | 0.00 | 0.00 | 0.00 | 55 | 1011.3 |
| 20260506143016 | 74 | 225 | 3.0 | 9.0 | 0.00 | 0.00 | 0.00 | 54 | 1011.2 |
| 20260506142015 | 75 | 248 | 3.0 | 7.0 | 0.00 | 0.00 | 0.00 | 55 | 1011.2 |
| 20260506141016 | 74 | 225 | 4.0 | 9.0 | 0.00 | 0.00 | 0.00 | 55 | 1011.1 |
| 20260506140016 | 74 | 248 | 4.0 | 10.0 | 0.00 | 0.00 | 0.00 | 56 | 1011.2 |
| 20260506135015 | 74 | 248 | 3.0 | 7.0 | 0.00 | 0.00 | 0.00 | 56 | 1011.3 |
| 20260506134017 | 74 | 203 | 5.0 | 12.0 | 0.00 | 0.00 | 0.00 | 56 | 1011.2 |
| 20260506133016 | 74 | 225 | 4.0 | 9.0 | 0.00 | 0.00 | 0.00 | 57 | 1011.3 |
| 20260506132015 | 74 | 248 | 4.0 | 9.0 | 0.00 | 0.00 | 0.00 | 57 | 1011.3 |
| 20260506131015 | 74 | 225 | 5.0 | 11.0 | 0.00 | 0.00 | 0.00 | 58 | 1011.2 |
| 20260506130016 | 75 | 225 | 6.0 | 12.0 | 0.00 | 0.00 | 0.00 | 57 | 1011.4 |
| 20260506125016 | 75 | 225 | 4.0 | 10.0 | 0.00 | 0.00 | 0.00 | 57 | 1011.4 |
| 20260506124015 | 75 | 225 | 4.0 | 10.0 | 0.00 | 0.00 | 0.00 | 57 | 1011.4 |
| 20260506123016 | 75 | 203 | 5.0 | 10.0 | 0.00 | 0.00 | 0.00 | 58 | 1011.5 |
| 20260506122015 | 75 | 203 | 5.0 | 10.0 | 0.00 | 0.00 | 0.00 | 55 | 1011.6 |
| 20260506121016 | 75 | 225 | 4.0 | 14.0 | 0.00 | 0.00 | 0.00 | 58 | 1011.6 |
| 20260506120017 | 75 | 270 | 2.0 | 9.0 | 0.00 | 0.00 | 0.00 | 59 | 1011.6 |
| 20260506115015 | 74 | 248 | 2.0 | 6.0 | 0.00 | 0.00 | 0.00 | 58 | 1011.6 |
| 20260506114017 | 74 | 270 | 4.0 | 10.0 | 0.00 | 0.00 | 0.00 | 58 | 1011.7 |
| 20260506113017 | 74 | 270 | 4.0 | 9.0 | 0.00 | 0.00 | 0.00 | 58 | 1011.7 |
| 20260506112017 | 74 | 248 | 2.0 | 5.0 | 0.00 | 0.00 | 0.00 | 58 | 1011.7 |
| 20260506111017 | 74 | 225 | 2.0 | 6.0 | 0.00 | 0.00 | 0.00 | 58 | 1011.6 |
| 20260506110017 | 73 | 203 | 4.0 | 13.0 | 0.00 | 0.00 | 0.00 | 59 | 1011.6 |
| 20260506105017 | 74 | 203 | 3.0 | 7.0 | 0.00 | 0.00 | 0.00 | 58 | 1011.8 |
| 20260506104037 | 74 | 203 | 2.0 | 7.0 | 0.00 | 0.00 | 0.00 | 58 | 1011.9 |
| 20260506103017 | 74 | 203 | 2.0 | 6.0 | 0.00 | 0.00 | 0.00 | 60 | 1011.9 |
| 20260506102037 | 72 | 225 | 1.0 | 3.0 | 0.00 | 0.00 | 0.00 | 62 | 1011.8 |
| 20260506101037 | 72 | 225 | 1.0 | 2.0 | 0.00 | 0.00 | 0.00 | 63 | 1011.9 |
| 20260506100100 | 71 | 203 | 1.0 | 4.0 | 0.00 | 0.00 | 0.00 | 62 | 1012.0 |
| 20260506095017 | 71 | 0.0 | 3.0 | 0.00 | 0.00 | 0.00 | 64 | 1012.0 | |
| 20260506094017 | 69 | 113 | 1.0 | 4.0 | 0.00 | 0.00 | 0.00 | 67 | 1011.9 |
| 20260506093038 | 68 | 0.0 | 2.0 | 0.00 | 0.00 | 0.00 | 69 | 1011.9 | |
| 20260506092017 | 67 | 0.0 | 3.0 | 0.00 | 0.00 | 0.00 | 69 | 1012.0 | |
| 20260506091057 | 67 | 90 | 2.0 | 5.0 | 0.00 | 0.00 | 0.00 | 67 | 1012.0 |